www.pogodaiklimat.ru

Погода и климат >> Архив погоды >> Канада >> Arviat


ПОГОДА в Arviat

  • Прогноз погоды в Arviat
  • Монитор погоды в Arviat
  • Климат города

АРХИВ ПОГОДЫ в Arviat

Время (UTC), дата Ветер
(напр.,м/с)
 
Видим.   Явления Облачность Т
(С)
Тd
(С)
f
(%)
Тe
(С)
Тes
(С)
Комфортность P
(гПа)
Po
(гПа)
Тmin
(С)
Tmax
(С)
R
(мм)
R24
(мм)
S
(см)
21 12.09 Ю 8 16 км 5/0
[]
+26.8 +7.5 29 +26 +27 жарко 1009.2 982.9
00 13.09 Ю 8 16 км ясно +26.2 +7.0 29 +26 +26 жарко 1007.8 981.5 +16.4 +27.8
03 13.09 ЮЗ 4 16 км ясно +22.5 +8.0 39 +24 +24 комфорт 1009.1 982.6
06 13.09 С 2 16 км 10/0 2000 м
[]
+20.0 +3.8 34 +21 +21 комфорт 1011.8 985.3 +16.4 +27.8 1
09 13.09 С 4 16 км слаб. дождь 10/10 1000 м
[]
+12.9 +10.3 84 1016.4
12 13.09 С 1 16 км {осадки} 10/0
[]
+12.1 +10.7 91 +12 +12 1016.6 989.9 +11.9 +27.8 0.8
15 13.09 С 2 16 км {осадки} 9/0
[]
+13.5 +9.1 75 1017.2
18 13.09 С 5 16 км ясно +19.1 +1.3 30 +19 +22 1016.4 989.7 +11.9 +20.2
21 13.09 С 4 16 км 5/0
[]
+22.8 -1.5 20 +22 +23 комфорт 1015.8 989.0
00 14.09 С 4 16 км 3/0
[]
+20.3 -1.5 23 +20 +20 1014.8 988.0 +11.9 +23.8
03 14.09 С 4 16 км 3/0
[]
+16.2 -1.3 30 +16 +16 1015.5 988.6
06 14.09 С 2 16 км ясно +13.7 +1.4 43 +13 +13 1016.2 989.3 +11.9 +23.8 71
09 14.09 С 1 16 км ясно +11.9 +1.7 50 +12 +12 1017.3 990.4
12 14.09 СВ 1 16 км ясно +10.0 +2.4 59 +11 +11 1018.4 991.4 +10.0 +23.8
15 14.09 С 3 16 км ясно +8.3 +2.3 66 +6 +9 1020.0 992.8
18 14.09 С 3 16 км ясно +18.6 +0.5 30 +19 +24 1018.5 991.6 +8.1 +18.6
21 14.09 С 5 16 км ясно +24.0 -3.2 16 +22 +24 комфорт 1016.3 989.5
00 15.09 С 2 16 км ясно +23.5 -4.5 15 +22 +22 комфорт 1015.1 988.3 +8.1 +24.4
03 15.09 СВ 2 16 км ясно +17.4 -3.9 23 +18 +18 1016.8 989.7
06 15.09 Ю 1 16 км ясно +12.3 +2.2 50 +13 +13 1018.3 991.3 +8.1 +24.4 21
09 15.09 Ю 1 16 км ясно +9.5 +1.7 58 +9 +9 1019.8 992.9
12 15.09 Ю 1 16 км ясно +7.0 +1.7 69 +7 +7 1021.2 994.1 +7.0 +24.4
15 15.09 ЮЗ 1 16 км ясно +5.5 +2.2 79 +6 +9 1022.8 995.5
18 15.09 СВ 2 16 км ясно +16.9 -1.2 29 +17 +23 1021.2 994.1 +5.4 +17.3
21 15.09 С 2 16 км ясно +24.3 -2.9 16 +22 +26 комфорт 1017.8 990.9
00 16.09 З 1 16 км ясно +25.6 -3.5 14 +23 +23 комфорт 1015.4 988.5 +5.4 +26.3
03 16.09 Ю 1 16 км ясно +16.6 +0.4 33 +18 +18 1015.6 988.5
06 16.09 ЮВ 1 16 км ясно +12.4 0.0 42 +13 +13 1016.8 989.8 +5.4 +26.3
09 16.09 штиль 0 16 км ясно +9.7 +1.2 55 +9 +9 1017.4 990.5
12 16.09 ЮЗ 1 16 км ясно +8.1 +3.3 72 +9 +9 1017.9 991.0 +8.1 +26.3
15 16.09 Ю 1 16 км ясно +6.8 +2.9 76 +6 +9 1019.0 991.8
18 16.09 СВ 1 16 км ясно +15.8 +1.0 37 +17 +23 1017.1 990.1 +6.5 +15.8
21 16.09 С 1 16 км ясно +24.2 +0.8 21 +23 +27 комфорт 1012.6 985.9
00 17.09 Ю 6 16 км 3/0
[]
+25.6 -0.3 18 +24 +24 комфорт 1009.9 983.2 +6.5 +26.0
03 17.09 Ю 5 16 км 10/0
[]
+21.7 +0.4 24 +21 +21 комфорт 1010.1 983.3
06 17.09 Ю 7 16 км ясно +19.2 -0.1 27 +19 +19 1010.3 983.6 +6.5 +26.0 1
09 17.09 Ю 7 16 км 9/0
[]
+16.6 +0.5 34 +15 +15 1009.6 983.1
12 17.09 Ю 4 16 км 9/9 360 м
[]
+14.4 +1.3 41 +13 +13 1008.9 982.4 +14.3 +26.0
15 17.09 ЮВ 2 16 км ясно +13.6 +1.6 44 +13 +16 1008.1 981.5
18 17.09 ЮЗ 4 16 км 3/0
[]
+17.8 +1.6 34 +18 +21 1005.1 978.6 +12.8 +19.2
21 17.09 Ю 7 8000 м дым 5/0
[]
+21.9 +1.3 26 1001.9
00 18.09 Ю 7 16 км 10/0 2000 м
[]
+18.7 +3.5 36 +18 +18 1002.6 976.1 +12.8 +22.0
03 18.09 ЮЗ 6 16 км слаб. дождь 10/0 2000 м
[]
+13.1 +8.8 75 1002.9
06 18.09 Ю 7 16 км слаб. дождь {осадки} 5/5 1000 м
[]
+12.2 +8.9 80 +9 +9 1002.2 975.6 +12.2 +22.0 0.8 211
09 18.09 Ю 8 16 км {осадки} ясно +11.2 +5.7 69 1004.3
12 18.09 Ю 7 16 км 3/0
[]
+10.4 +5.1 70 +7 +7 1005.3 978.6 +10.3 +22.0
15 18.09 Ю 5 16 км ясно +10.1 +4.9 70 +7 +8 1005.8 979.0
18 18.09 Ю 7 16 км ясно +13.0 +5.3 59 +11 +12 1005.2 978.4 +9.8 +13.6
21 18.09 Ю 9 16 км 3/0 2000 м
[]
+13.8 +4.4 53 +11 +11 1004.9 978.1
00 19.09 Ю 9 16 км 9/0
[]
+14.0 +3.8 50 +12 +12 1003.8 977.0 +9.8 +15.7
03 19.09 ЮЗ 5 16 км 9/0
[]
+12.6 +3.9 55 +11 +11 1004.5 977.7
06 19.09 Ю 6 16 км ясно +10.9 +4.6 65 +8 +8 1005.1 978.3 +9.8 +15.7 91
09 19.09 С 1 16 км ясно +6.8 +4.0 82 +6 +6 1005.9 979.0
12 19.09 С 1 16 км 10/10 150 м
[]
+5.1 +3.9 92 +5 +5 1007.1 980.1 +5.1 +15.7
15 19.09 Ю 1 16 км 3/3 1000 м
[]
+4.8 +3.5 91 +5 +6 1007.9 980.9
18 19.09 Ю 2 16 км ясно +11.0 +2.6 56 +10 +15 1006.8 979.9 +4.4 +11.0

 

Местоположение метеостанции Arviat (Канада): широта 61.10 долгота -94.06 высота над уровнем моря 10 м.

В архиве по умолчанию представлена погода в Arviat за последнюю неделю. Архивные данные за месяц целиком и за предыдущие месяцы, начиная с января 2011 года, Вы можете получить, выбрав интересующий диапазон дат из раскрывающегося списка и нажав кнопку "Ввод!".

Внимание! Время в таблицах - всемирное. Для получения местного времени необходимо прибавить поправку, которая в Arviat равна -6 ч.

Смотрите также архив погоды в соседних городах и на ближайших метеорологических станциях:

Погода в Arviat Airport (Канада) (1 км)
Погода в Rankin Inlet (Канада) (217 км)
Погода в Churchill Climate (Канада) (265 км)
Погода в Tadoule Lake (Канада) (362 км)
Погода в Baker Lake Airport (Канада) (370 км)
Погода в Baker Lake Climate (Канада) (372 км)
Погода в Dubawnt Lake (Канада) (462 км)
Погода в Gillam (Канада) (530 км)
Погода в Back River MAPS (Канада) (567 км)
Погода в Wager Bay (Канада) (579 км)

Пояснения к столбцам:

Ветер - указаны скорость ветра в м/с - средняя за 10 мин, порывы в срок и между сроками (в фигурных скобках) и направление, откуда дует ветер: С - северный, СВ - северо-восточный, В - восточный, ЮВ - юго-восточный, Ю - южный, ЮЗ - юго-западный, З - западный, СЗ - северо-западный.
Видимость - горизонтальная дальность видимости в метрах или километрах. При видимости от 1 до 10 км при отсутствии осадков обычно наблюдается дымка, при ухудшении видимости до 1 км и менее - туман. В сухую погоду видимость может ухудшаться дымом, пылью или мглою.
Явления - указаны атмосферные явления, наблюдавшиеся в срок или в последний час перед сроком; фигурными скобками обозначены явления, наблюдавшиеся между сроками (за 1-3 часа до срока); квадратными скобками обозначены град или гололедные отложения с указанием их диаметра в мм.
Облачность - указаны через наклонную черту общая и нижняя облачность в баллах и высота нижней границы облаков в метрах; квадратными скобками обозначены формы облаков: Ci - перистые, Cs - перисто-слоистые, Cc - перисто-кучевые, Ac - высококучевые, As - высокослоистые, Sc - слоисто-кучевые, Ns - слоисто-дождевые, Cu - кучевые, Cb - кучево-дождевые. Подробнее классификацию облаков см. в Атласе облаков (PDF).
T - Температура воздуха - температура, измеренная на высоте 2 м над землей.
Td - Температура точки росы - температура, при понижении до которой содержащийся в воздухе водяной пар достигнет насыщения.
f - Относительная влажность воздуха - влажноcть воздуха, измеренная на высоте 2 м над землей.
Te - Эффективная температура - температура, которую ощущает одетый по сезону человек в тени. Характеристика душности погоды. При расчете учитывается влияние влажности воздуха и скорости ветра на теплоощущения человека.
Tes - Эффективная температура на солнце - температура, которую ощущает человек, с поправкой на солнечный нагрев. Характеристика знойности погоды. Зависит от высоты солнца над горизонтом, облачности и скорости ветра. Ночью, в пасмурную погоду, а также при ветре 12 м/с и более поправка равна нулю.
P - Атмосферное давление - приведенное к уровню моря атмосферное давление.
Po - Атмосферное давление - измеренное на уровне метеостанции атмосферное давление.
Tmin - Минимальная температура - минимум температуры воздуха на высоте 2 м над землей.
Tmax - Максимальная температура - максимум температуры воздуха на высоте 2 м над землей.
R - Количество осадков - Количество выпавших осадков за период времени, мм. При наведении курсора мыши на число - период времени, за который выпало указанное количество осадков.
R24 - Количество осадков - Количество выпавших осадков за 24 часа, мм.
S - Снежный покров - Высота снежного покрова, см. При наведении курсора мыши на число - состояние снежного покрова и степень покрытия местности в баллах.